Location: Gleizolles
(44.4833°N, 6.7667°E)
Time: 15:46:20
(UTC+00:00)

Explorer 7 - Pass Details

Date: 24 June 2024
Orbit: 465 x 619 km, 50.3° (Epoch: 12 July)

Event Time Altitude Azimuth Distance (km) Brightness Sun altitude
Rises 08:19:14 0° 195° (SSW) 2,748 10.4 45.0°
Reaches altitude 10° 08:22:09 10° 175° (S) 1,822 9.8 45.5°
Maximum altitude 08:24:50 17° 135° (SE) 1,410 9.8 46.0°
Drops below altitude 10° 08:27:27 10° 94° (E) 1,765 10.4 46.4°
Sets 08:30:12 0° 74° (ENE) 2,623 10.9 46.9°
